Date String (YYYY-MM-DD hh:mm:ss) UTC,Instrument flags,Ambient pressure (hPa),Sample flow (lpm),Bypass flow (lpm),Sample temperature (°C),Ambient temperature (°C),ASC tube jacket temperature (°C),LED temperature (°C),Box temperature (°C),Sample RH (%),Span deviation,Mass concentration (μg/m³),Mass concentration (μg/m³),Mass concentration (μg/m³)
DateTimeUTC,F1_M11,P_M11,Q1_M11,Q2_M11,T1_M11,T2_M11,T3_M11,T4_M11,T5_M11,U1_M11,ZSPAN_M11,X0_M11,X2_M11,X1_M11
2022-12-29 20:00:00,,0817.4,4.98,0.00,23.6,22.5,00.0,32.4,25.4,11.9,0000.0,0008.37,0004.50,0004.28
2022-12-29 20:01:00,,0817.3,4.98,0.00,23.6,22.4,00.0,32.4,25.4,11.4,0000.0,0008.40,0004.53,0004.27
2022-12-29 20:02:00,,0817.4,4.99,0.00,23.6,22.4,00.0,32.4,25.4,11.0,0000.0,0008.47,0004.61,0004.34
2022-12-29 20:03:00,,0817.3,5.06,0.00,23.5,22.3,00.0,32.4,25.3,09.9,0000.0,0008.56,0004.71,0004.44
2022-12-29 20:04:00,,0817.4,4.99,0.00,23.5,22.1,00.0,32.4,25.2,09.3,0000.0,0008.49,0004.67,0004.43
2022-12-29 20:05:00,,0817.4,4.99,0.00,23.5,22.0,00.0,32.4,25.1,08.4,0000.0,0008.12,0004.49,0004.27
2022-12-29 20:06:00,,0817.4,4.98,0.00,23.4,22.0,00.0,32.4,25.1,08.1,0000.0,0006.90,0004.28,0004.06
2022-12-29 20:07:00,,0817.3,5.02,0.00,23.4,22.1,00.0,32.4,25.2,08.1,0000.0,0006.61,0004.11,0003.87
2022-12-29 20:08:00,,0817.3,5.03,0.00,23.4,22.1,00.0,32.4,25.2,08.2,0000.0,0005.68,0003.95,0003.74
2022-12-29 20:09:00,,0817.3,5.02,0.00,23.5,22.2,00.0,32.4,25.2,08.8,0000.0,0005.42,0003.87,0003.67
2022-12-29 20:10:00,,0817.4,4.99,0.00,23.5,22.3,00.0,32.4,25.3,09.4,0000.0,0005.15,0003.76,0003.59
2022-12-29 20:11:00,,0817.3,4.97,0.00,23.5,22.3,00.0,32.4,25.2,09.7,0000.0,0004.78,0003.62,0003.46
2022-12-29 20:12:00,,0817.4,4.99,0.00,23.5,22.3,00.0,32.4,25.2,09.7,0000.0,0004.35,0003.47,0003.32
2022-12-29 20:13:00,,0817.5,5.03,0.00,23.5,22.4,00.0,32.4,25.2,09.7,0000.0,0004.11,0003.37,0003.23
2022-12-29 20:14:00,,0817.4,5.03,0.00,23.5,22.4,00.0,32.4,25.3,09.5,0000.0,0004.02,0003.32,0003.17
2022-12-29 20:15:00,,0817.5,4.98,0.00,23.5,22.4,00.0,32.4,25.2,09.1,0000.0,0004.09,0003.33,0003.16
2022-12-29 20:16:00,,0817.4,4.97,0.00,23.5,22.4,00.0,32.4,25.3,08.2,0000.0,0003.99,0003.28,0003.11
2022-12-29 20:17:00,,0817.5,4.99,0.00,23.6,22.3,00.0,32.4,25.3,08.0,0000.0,0003.84,0003.24,0003.07
2022-12-29 20:18:00,,0817.5,4.98,0.00,23.5,22.1,00.0,32.4,25.2,08.0,0000.0,0003.87,0003.23,0003.03
2022-12-29 20:19:00,,0817.4,5.07,0.00,23.5,21.9,00.0,32.4,25.1,07.8,0000.0,0003.86,0003.20,0002.95
2022-12-29 20:20:00,,0817.3,5.02,0.00,23.4,21.8,00.0,32.4,25.1,07.9,0000.0,0003.78,0003.14,0002.85
2022-12-29 20:21:00,,0817.4,4.99,0.00,23.4,21.7,00.0,32.4,25.0,08.0,0000.0,0003.63,0003.01,0002.69
2022-12-29 20:22:00,,0817.4,4.99,0.00,23.4,21.7,00.0,32.3,25.0,08.0,0000.0,0003.42,0002.84,0002.54
2022-12-29 20:23:00,,0817.5,4.98,0.00,23.3,21.6,00.0,32.3,25.0,08.3,0000.0,0003.16,0002.66,0002.41
2022-12-29 20:24:00,,0817.5,5.05,0.00,23.3,21.6,00.0,32.3,25.0,08.3,0000.0,0003.03,0002.55,0002.29
2022-12-29 20:25:00,,0817.5,5.02,0.00,23.3,21.7,00.0,32.3,25.0,08.2,0000.0,0002.87,0002.41,0002.17
2022-12-29 20:26:00,,0817.4,4.97,0.00,23.3,21.8,00.0,32.3,25.0,08.1,0000.0,0002.58,0002.19,0002.03
2022-12-29 20:27:00,,0817.5,4.99,0.00,23.3,21.8,00.0,32.3,25.0,08.1,0000.0,0002.62,0002.19,0002.00
2022-12-29 20:28:00,,0817.5,5.02,0.00,23.3,21.8,00.0,32.2,25.0,08.0,0000.0,0002.62,0002.18,0001.99
2022-12-29 20:29:00,,0817.5,5.01,0.00,23.3,21.8,00.0,32.2,25.0,08.2,0000.0,0002.61,0002.18,0001.98
2022-12-29 20:30:00,,0817.5,4.97,0.00,23.3,21.8,00.0,32.2,25.0,08.8,0000.0,0002.73,0002.24,0002.04
2022-12-29 20:31:00,,0817.4,4.98,0.00,23.3,21.9,00.0,32.2,25.0,08.8,0000.0,0004.59,0002.33,0002.10
2022-12-29 20:32:00,,0817.5,5.02,0.00,23.3,21.9,00.0,32.2,25.0,08.3,0000.0,0005.07,0002.38,0002.13
2022-12-29 20:33:00,,0817.5,5.04,0.00,23.3,21.9,00.0,32.2,25.0,08.1,0000.0,0005.51,0002.42,0002.15
2022-12-29 20:34:00,,0817.5,5.01,0.00,23.3,21.8,00.0,32.2,25.0,07.9,0000.0,0005.51,0002.41,0002.13
2022-12-29 20:35:00,,0817.5,5.00,0.00,23.2,21.7,00.0,32.2,24.9,08.1,0000.0,0005.44,0002.37,0002.12
2022-12-29 20:36:00,,0817.5,4.97,0.00,23.2,21.5,00.0,32.2,24.8,08.1,0000.0,0005.37,0002.35,0002.11
2022-12-29 20:37:00,,0817.5,4.99,0.00,23.1,21.4,00.0,32.2,24.8,07.9,0000.0,0005.43,0002.36,0002.10
2022-12-29 20:38:00,,0817.5,4.98,0.00,23.1,21.4,00.0,32.1,24.8,07.4,0000.0,0005.34,0002.30,0002.05
2022-12-29 20:39:00,,0817.5,5.00,0.00,23.1,21.4,00.0,32.1,24.8,07.5,0000.0,0005.25,0002.22,0001.98
2022-12-29 20:40:00,,0817.6,5.06,0.00,23.1,21.5,00.0,32.1,24.8,07.5,0000.0,0005.09,0002.14,0001.93
2022-12-29 20:41:00,,0817.5,5.03,0.00,23.1,21.6,00.0,32.1,24.8,07.5,0000.0,0004.88,0002.01,0001.83
2022-12-29 20:42:00,,0817.5,4.99,0.00,23.1,21.6,00.0,32.1,24.8,08.2,0000.0,0003.07,0001.97,0001.80
2022-12-29 20:43:00,,0817.5,4.97,0.00,23.1,21.7,00.0,32.0,24.8,07.4,0000.0,0002.59,0001.92,0001.74
2022-12-29 20:44:00,,0817.5,5.00,0.00,23.1,21.7,00.0,32.0,24.8,07.8,0000.0,0002.12,0001.86,0001.71
2022-12-29 20:45:00,,0817.5,4.97,0.00,23.1,21.7,00.0,32.0,24.8,08.7,0000.0,0002.29,0002.00,0001.83
2022-12-29 20:46:00,,0817.5,5.06,0.00,23.1,21.7,00.0,32.0,24.8,08.9,0000.0,0002.47,0002.15,0001.94
2022-12-29 20:47:00,,0817.5,5.01,0.00,23.1,21.6,00.0,32.0,24.7,08.8,0000.0,0002.62,0002.27,0002.05
2022-12-29 20:48:00,,0817.6,5.02,0.00,23.0,21.4,00.0,32.0,24.7,08.6,0000.0,0002.67,0002.32,0002.12
2022-12-29 20:49:00,,0817.6,4.98,0.00,23.0,21.2,00.0,32.0,24.6,07.8,0000.0,0002.70,0002.36,0002.15
2022-12-29 20:50:00,,0817.5,5.02,0.00,22.9,21.1,00.0,32.0,24.6,07.6,0000.0,0002.97,0002.44,0002.19
2022-12-29 20:51:00,,0817.4,5.01,0.00,22.9,21.2,00.0,32.0,24.6,07.8,0000.0,0003.11,0002.48,0002.22
2022-12-29 20:52:00,,0817.5,4.97,0.00,22.9,21.3,00.0,31.9,24.6,07.8,0000.0,0003.17,0002.51,0002.25
2022-12-29 20:53:00,,0817.5,5.02,0.00,22.9,21.4,00.0,31.9,24.6,07.8,0000.0,0003.10,0002.46,0002.22
2022-12-29 20:54:00,,0817.5,4.98,0.00,22.9,21.5,00.0,31.9,24.6,07.8,0000.0,0003.12,0002.46,0002.23
2022-12-29 20:55:00,,0817.5,4.97,0.00,22.9,21.5,00.0,31.9,24.7,07.5,0000.0,0003.17,0002.48,0002.23
2022-12-29 20:56:00,,0817.5,4.97,0.00,22.9,21.6,00.0,31.9,24.7,07.6,0000.0,0003.01,0002.33,0002.09
2022-12-29 20:57:00,,0817.4,5.05,0.00,22.9,21.6,00.0,31.9,24.7,07.7,0000.0,0002.85,0002.18,0001.96
2022-12-29 20:58:00,,0817.5,5.03,0.00,22.9,21.6,00.0,31.9,24.7,07.9,0000.0,0002.78,0002.08,0001.84
2022-12-29 20:59:00,,0817.5,4.99,0.00,23.0,21.6,00.0,31.9,24.7,08.3,0000.0,0002.67,0002.01,0001.79
